Temperature
24 25 26 26 27 27 27 26 27 28 28 27 28 28 28 27 27 27 26 24 21 19 19 18 16 15 15 16 17 18 17 17 16 16 16 16 15 15 15 15 15 14 14 14
24 25 26 27 26 25 25 25 26 27 27 26 27 27 28 27 27 26 26 24 21 19 17 16 15 15 15 16 17 18 17 17 16 16 15 15 15 15 15 14 14 13 13 13
25 26 26 25 24 24 25 25 26 26 27 26 26 26 27 27 26 25 24 24 21 19 17 16 15 15 15 15 16 17 17 16 16 15 15 15 14 14 13 13 13 12 12 12
25 26 25 24 25 25 25 26 26 25 25 26 26 25 28 28 26 25 24 23 22 20 17 16 15 15 14 15 16 16 16 15 15 14 14 13 13 13 13 12 11 11 10 9
25 26 25 24 25 25 25 26 26 25 25 25 26 25 27 28 27 27 25 23 22 20 18 16 15 14 14 14 15 15 15 14 14 13 13 13 13 13 12 11 10 9 8 8
26 26 26 26 26 26 26 25 25 25 25 24 25 25 26 28 27 28 27 23 21 20 17 15 14 13 13 14 14 14 14 13 13 13 13 13 13 12 11 10 9 8 8 7
24 25 25 26 25 25 25 24 24 24 24 24 26 25 26 28 28 28 27 22 20 17 14 13 13 13 13 13 13 13 13 13 13 13 13 13 12 11 10 10 8 8 7 7
24 24 26 26 25 25 25 24 23 23 24 26 26 25 27 28 26 24 24 20 17 15 13 12 12 12 12 12 12 12 12 12 12 12 13 13 12 11 9 8 7 6 6 6
25 25 26 26 26 26 25 25 26 25 24 24 25 26 27 27 25 23 22 18 15 13 12 12 12 12 11 11 11 11 11 11 11 12 12 12 11 9 8 6 6 6 5 6
24 24 26 26 26 26 26 26 25 24 22 23 24 25 26 26 25 23 21 17 15 13 12 11 11 11 10 10 10 10 10 11 11 11 11 9 8 7 6 6 5 5 5 5
23 22 24 25 24 25 25 25 24 25 25 24 23 25 25 23 22 23 21 17 14 13 12 11 10 10 10 10 10 10 10 11 11 10 9 8 7 6 6 5 5 5 5 4
21 22 23 24 25 24 25 25 25 23 23 24 24 25 20 20 21 21 20 17 14 12 12 11 10 10 10 10 10 10 10 10 10 9 8 8 7 6 5 5 5 5 4 4
20 20 21 23 23 23 23 23 23 23 23 23 23 24 20 20 20 20 19 16 13 12 11 10 9 9 9 9 9 9 9 9 9 8 7 7 6 5 5 5 5 5 5 5
18 20 21 21 22 22 22 22 22 23 23 23 23 24 23 20 20 19 17 14 12 11 10 9 9 8 8 8 8 9 9 8 8 7 6 6 5 5 5 5 5 5 5 5
19 20 21 21 21 21 21 21 22 22 22 22 23 23 23 22 20 18 16 13 12 11 9 8 8 7 8 8 8 9 8 7 7 6 6 6 5 5 5 5 5 5 5 4
18 19 19 20 20 20 20 21 21 21 21 22 22 22 22 20 18 17 15 13 12 10 9 8 7 7 7 8 8 7 6 6 5 6 6 6 5 5 5 5 5 5 4 4
18 18 18 19 20 19 19 21 20 20 21 21 21 21 19 18 17 16 15 13 12 10 9 7 6 6 7 7 6 6 5 5 5 6 6 6 5 5 5 5 4 4 3 3
16 17 17 18 18 16 19 18 18 18 19 18 18 18 17 16 15 14 13 13 11 10 8 6 5 6 5 5 5 4 5 5 6 6 6 6 6 5 5 4 4 3 2 2
15 16 16 16 16 17 19 17 16 16 17 15 15 14 12 11 11 11 10 11 10 8 7 6 5 5 5 5 4 4 5 5 6 6 6 6 5 5 4 4 3 2 1 0
14 15 15 15 14 15 16 15 15 15 16 14 14 13 11 11 12 11 9 8 8 7 6 5 5 5 5 4 4 5 5 6 6 6 5 5 4 4 3 2 1 1 0 -0
14 14 14 14 14 15 15 14 15 15 14 13 13 12 11 10 9 8 7 6 6 6 5 5 4 4 4 4 4 4 5 5 5 5 5 4 4 3 2 1 0 -0 -0 -1
14 14 14 14 13 14 13 14 14 13 12 12 12 11 10 8 7 6 6 5 5 5 4 4 4 4 4 4 4 5 5 5 5 4 4 3 3 2 2 1 0 -0 -1 -1
13 13 14 14 14 14 13 12 12 12 11 11 11 10 8 7 6 5 5 4 4 4 4 4 4 4 4 5 5 6 5 5 4 4 3 3 2 1 0 0 0 -0 -1 -2
13 12 12 12 14 13 12 12 12 11 11 10 10 9 7 6 5 4 4 4 4 4 4 5 5 6 6 6 6 5 5 4 4 3 3 2 2 1 0 -0 -0 -1 -1 -2
12 12 11 12 13 12 12 11 11 10 9 9 8 7 6 5 5 5 5 5 5 5 6 6 6 6 6 6 5 5 4 4 3 3 3 2 2 1 0 -0 -1 -1 -2 -2
12 11 11 11 11 10 10 9 8 8 8 7 6 5 5 5 5 6 6 6 6 6 6 6 6 6 6 6 5 5 4 4 3 3 3 3 2 1 0 -0 -1 -1 -2 -2
Wind_Speed
12 12 16 16 17 16 10 12 14 14 8 10 12 12 8 8 11 13 13 14 15 15 15 11 11 10 9 8 9 9 10 10 8 7 8 7 8 8 8 10 12 12 11 10
10 17 17 11 10 13 14 15 16 14 8 8 12 14 12 10 14 13 14 16 16 15 14 12 11 10 10 10 11 12 12 10 9 8 7 7 9 8 8 9 10 10 10 9
20 8 10 12 13 14 16 16 16 16 12 11 13 19 18 12 13 14 15 17 19 19 18 15 13 12 12 12 12 12 13 12 11 11 10 10 9 8 7 6 5 6 6 6
17 16 9 13 15 16 17 15 15 16 17 16 12 15 15 13 14 16 17 19 20 20 19 17 16 15 14 14 14 14 14 14 13 11 10 10 7 6 5 4 4 4 4 5
13 15 17 17 17 16 15 11 12 15 17 17 15 14 16 11 14 17 19 20 20 20 20 19 18 17 16 15 15 15 16 15 14 12 11 10 8 7 5 3 3 1 3 3
16 9 11 13 13 11 12 10 11 13 15 19 18 17 16 12 13 14 16 18 18 18 18 17 17 18 16 15 15 15 16 15 14 12 11 10 9 6 4 2 3 3 2 3
17 16 13 11 12 10 12 12 11 12 14 18 17 14 15 11 10 10 10 16 17 17 18 18 19 18 17 16 15 14 15 14 13 13 11 10 8 6 5 3 2 3 3 3
15 14 17 16 19 15 16 17 14 13 14 13 10 12 12 6 3 5 7 15 18 18 18 18 19 18 17 16 14 13 13 14 13 12 11 9 7 5 5 4 2 1 3 3
9 11 8 12 15 17 17 17 20 18 19 16 14 13 10 8 6 6 12 17 19 18 18 18 18 16 16 15 13 12 13 13 12 12 11 9 7 5 5 2 1 2 2 3
8 11 12 12 12 17 19 16 11 15 18 18 17 18 14 8 6 9 16 18 17 17 18 18 16 15 13 13 13 13 13 12 12 11 9 6 5 4 1 1 3 3 3 4
6 10 13 9 13 18 17 17 14 15 15 17 17 14 2 2 4 8 14 16 17 17 18 18 16 15 14 14 13 13 12 12 10 9 7 5 4 3 1 2 3 3 4 6
1 6 12 12 5 8 13 16 17 16 16 15 16 13 5 2 6 9 13 15 17 17 17 18 17 16 14 14 13 12 11 10 9 7 5 4 3 1 2 2 3 5 6 8
2 4 10 11 8 7 6 7 10 11 12 15 16 9 6 3 1 8 13 15 16 17 17 16 15 14 13 13 12 11 10 9 7 6 4 3 0 1 2 3 5 6 8 10
3 5 9 11 4 2 5 5 5 9 13 13 13 5 4 3 3 7 11 14 16 16 17 16 14 12 12 12 11 10 9 7 5 4 3 2 1 1 3 5 7 9 10 12
3 7 7 5 3 2 5 6 7 9 10 11 9 8 5 1 5 8 11 14 15 16 16 15 13 12 12 12 11 9 7 5 4 4 3 2 1 2 5 7 8 9 10 10
2 6 8 11 9 9 12 13 14 14 14 15 16 16 5 1 5 9 13 16 17 18 17 15 13 12 11 10 10 8 5 4 4 3 3 2 2 4 6 6 6 6 7 8
3 5 9 14 12 12 17 12 10 11 11 12 14 8 4 1 6 10 13 15 16 17 17 15 12 10 9 8 8 6 4 3 3 2 1 2 3 5 4 4 5 6 7 8
6 7 7 11 10 14 3 5 5 7 6 7 8 8 8 6 2 5 8 11 13 15 15 14 12 11 10 9 7 4 3 3 2 2 2 3 3 3 3 4 6 7 8 9
6 9 9 9 12 11 6 4 5 5 3 10 10 8 5 3 2 1 2 3 8 12 14 14 13 12 10 8 5 4 3 2 2 2 2 3 3 4 4 5 6 7 8 8
4 7 9 9 9 7 1 6 4 5 4 10 12 8 3 3 3 2 4 8 14 16 15 15 13 11 10 6 4 2 1 1 1 3 3 4 5 5 5 5 6 6 6 7
8 7 11 10 9 6 5 6 5 6 3 12 13 9 3 2 5 8 11 14 15 16 15 13 11 9 8 7 4 2 1 2 3 3 5 5 5 4 4 5 5 6 7 7
6 6 8 8 9 4 7 7 5 8 13 13 12 7 2 8 11 12 14 15 16 15 13 11 10 10 8 6 4 3 4 4 4 6 5 5 4 5 6 6 5 5 6 7
4 4 4 4 4 4 6 7 10 12 14 12 9 3 8 12 12 14 16 15 14 13 11 11 12 12 9 6 3 5 6 5 6 6 5 4 5 5 6 5 5 5 6 6
4 3 5 7 8 8 10 12 12 12 12 9 4 5 12 16 17 16 15 13 13 14 13 12 12 11 9 7 5 6 7 6 6 6 5 5 5 6 6 6 7 7 7 7
6 5 8 12 12 11 9 9 11 10 5 1 7 11 16 18 17 16 14 14 14 13 12 11 11 10 8 7 8 8 7 6 6 5 5 5 6 6 6 6 7 8 8 7
5 6 8 10 10 10 13 12 10 3 6 11 15 16 16 16 17 17 16 15 13 12 11 10 9 9 9 10 9 8 7 6 4 5 5 5 6 6 6 6 5 5 5 3
Wind_Direction
196 216 221 224 227 250 260 253 248 245 255 264 253 247 239 231 227 224 213 201 196 191 186 162 158 155 144 131 125 122 118 128 135 135 135 123 111 102 91 81 76 74 69 65
200 229 237 242 231 234 238 244 249 251 245 264 257 255 250 238 234 230 220 208 204 194 178 169 168 163 152 136 130 130 128 134 141 128 114 110 107 96 88 85 78 75 70 58
219 235 231 217 214 225 235 245 252 256 253 250 262 260 245 228 234 233 228 219 206 199 187 177 169 162 155 142 136 129 124 124 119 121 119 119 115 116 110 106 95 81 72 59
232 230 201 216 226 231 244 241 252 259 258 256 243 266 247 223 226 229 228 222 212 198 191 179 170 162 154 143 137 133 126 121 121 129 133 137 134 126 124 134 119 106 59 31
221 228 222 229 236 235 247 255 247 250 254 260 251 257 263 231 238 233 224 219 210 196 187 179 171 160 151 145 140 135 127 122 121 120 125 129 122 122 129 128 112 350 53 34
239 221 229 237 234 234 235 238 243 247 249 248 247 252 259 236 242 250 221 206 201 188 175 167 160 150 146 143 139 134 128 127 128 127 122 114 111 111 105 64 7 332 0 18
229 224 222 229 226 210 219 228 235 234 230 244 240 244 258 257 258 268 223 189 180 169 161 159 154 150 146 143 141 137 137 135 129 119 110 103 97 93 80 34 38 334 338 359
223 230 218 220 229 231 219 230 245 258 257 255 213 238 258 242 287 284 202 172 165 164 162 160 156 151 148 146 147 146 143 133 123 113 102 89 76 57 65 65 10 353 337 356
239 239 205 217 223 234 239 238 247 257 264 272 264 256 254 239 236 220 175 164 170 165 161 160 157 151 146 149 151 144 134 124 113 101 92 84 73 62 71 100 257 324 339 335
256 252 241 231 235 238 247 248 247 244 254 259 259 255 253 235 227 204 179 174 171 162 162 160 154 145 145 145 136 133 128 114 100 90 81 78 75 73 75 322 10 352 339 342
242 246 250 236 230 241 228 235 237 248 251 260 265 265 330 199 259 224 191 180 170 168 166 160 152 147 146 142 139 135 123 111 102 93 91 86 71 57 315 300 321 314 310 308
260 258 255 243 242 280 255 238 237 246 254 257 268 276 89 315 268 227 194 177 166 168 166 157 151 150 152 148 142 130 119 110 104 106 108 89 63 14 292 293 307 298 292 294
306 249 246 228 210 212 220 227 242 246 259 261 262 267 98 38 263 189 178 168 162 166 160 155 154 155 152 144 133 121 113 109 117 126 123 97 39 260 266 292 300 298 296 295
267 250 261 271 319 168 199 213 230 244 252 257 252 254 119 93 148 177 175 163 162 166 164 163 159 152 144 135 127 121 114 117 128 137 139 129 170 257 278 293 299 298 298 299
280 248 250 268 306 297 266 265 269 269 278 277 275 265 287 232 196 189 178 165 168 171 169 166 157 148 143 134 125 111 107 123 146 153 139 134 164 281 294 302 307 311 315 318
289 265 261 258 255 272 274 270 269 271 275 273 274 274 320 37 183 190 186 179 180 177 171 165 154 147 140 128 116 109 119 153 167 151 137 142 280 298 309 317 325 335 343 342
248 257 259 263 262 278 266 277 284 281 287 292 285 313 22 304 212 210 202 194 190 179 170 159 150 139 122 106 98 104 136 168 174 165 192 262 296 315 334 347 3 3 351 342
263 261 260 260 257 253 267 36 332 297 299 339 317 336 338 328 251 231 222 205 187 174 158 143 131 114 99 91 90 112 142 157 177 213 266 299 328 4 34 27 13 360 350 343
248 249 251 249 245 259 235 47 359 317 284 29 360 353 1 52 85 47 301 224 164 143 129 121 116 112 105 106 126 149 142 151 217 277 320 4 37 58 37 18 5 355 348 347
213 228 237 231 240 242 126 34 344 281 234 31 6 352 328 261 272 110 95 92 98 105 111 113 113 112 113 122 137 130 136 196 332 4 42 69 68 50 26 8 351 351 346 344
210 214 225 228 234 248 66 5 295 254 340 359 348 342 312 275 46 99 103 99 103 107 110 113 116 116 121 128 127 132 125 38 35 75 92 82 63 36 4 350 343 337 340 348
237 231 227 228 234 232 50 358 339 327 328 323 325 332 88 110 107 107 104 106 107 108 110 116 120 121 125 138 156 134 77 68 91 102 95 74 34 360 352 341 331 335 353 355
251 281 278 249 265 7 338 313 307 304 305 304 302 303 140 130 118 111 109 110 111 117 127 137 135 135 140 150 134 91 87 98 107 102 82 47 16 9 2 348 4 17 16 1
213 244 269 273 274 299 306 301 299 303 304 299 291 147 142 128 121 118 118 123 131 136 141 142 137 132 127 118 94 89 100 108 104 88 60 34 20 23 40 23 26 24 17 4
279 264 265 269 281 290 290 302 311 311 306 121 119 124 126 125 125 127 132 136 135 132 130 128 123 118 108 100 98 99 103 105 95 72 46 34 39 41 37 41 39 25 34 15
254 267 276 284 310 307 303 312 312 286 137 126 120 119 124 126 132 133 129 126 123 122 122 121 117 108 102 103 100 98 101 97 74 55 37 34 41 38 28 36 69 78 32 358
Height
1499 1498 1492 1489 1490 1490 1492 1495 1493 1489 1490 1494 1489 1488 1490 1492 1492 1492 1495 1500 1506 1511 1516 1517 1518 1521 1525 1528 1530 1532 1534 1535 1538 1540 1542 1544 1545 1546 1546 1547 1548 1548 1549 1549
1497 1492 1485 1484 1488 1493 1495 1497 1493 1488 1489 1492 1487 1487 1485 1490 1489 1489 1492 1496 1503 1508 1511 1513 1516 1519 1522 1524 1526 1528 1531 1533 1535 1538 1540 1542 1543 1544 1544 1545 1546 1546 1546 1546
1486 1481 1482 1487 1492 1495 1493 1493 1489 1487 1483 1487 1490 1488 1481 1483 1486 1487 1489 1491 1496 1501 1505 1509 1511 1514 1517 1520 1523 1525 1527 1530 1533 1536 1538 1541 1542 1542 1544 1544 1545 1544 1543 1542
1479 1477 1484 1487 1487 1488 1490 1483 1486 1487 1488 1484 1482 1489 1471 1471 1478 1481 1483 1485 1488 1494 1500 1503 1506 1509 1513 1516 1519 1523 1525 1528 1530 1534 1537 1539 1541 1542 1542 1543 1543 1541 1539 1538
1475 1474 1478 1483 1481 1481 1482 1478 1482 1483 1483 1484 1480 1487 1474 1465 1472 1470 1473 1477 1481 1488 1494 1498 1501 1504 1508 1512 1516 1519 1522 1525 1528 1531 1534 1536 1538 1539 1540 1541 1540 1539 1537 1534
1468 1471 1474 1474 1474 1476 1477 1480 1482 1481 1479 1487 1479 1480 1474 1459 1462 1459 1461 1470 1477 1484 1490 1494 1498 1501 1505 1509 1513 1516 1520 1523 1526 1528 1531 1533 1534 1535 1535 1536 1537 1538 1536 1533
1471 1469 1471 1472 1473 1476 1478 1484 1488 1486 1483 1479 1463 1471 1466 1454 1453 1455 1458 1467 1475 1482 1486 1490 1494 1498 1503 1508 1512 1515 1519 1521 1523 1525 1528 1529 1531 1531 1530 1532 1533 1533 1533 1531
1467 1468 1463 1466 1469 1468 1472 1476 1485 1487 1478 1465 1461 1470 1457 1450 1457 1459 1461 1467 1475 1480 1484 1489 1494 1499 1503 1508 1512 1516 1519 1521 1521 1523 1524 1526 1527 1529 1529 1528 1531 1531 1530 1529
1460 1462 1454 1458 1460 1462 1465 1466 1463 1470 1471 1474 1464 1455 1452 1452 1457 1459 1462 1469 1475 1480 1485 1490 1496 1500 1504 1509 1513 1517 1519 1519 1520 1520 1521 1523 1524 1525 1526 1527 1528 1530 1528 1527
1459 1465 1455 1454 1457 1457 1456 1455 1460 1469 1480 1480 1467 1459 1452 1445 1451 1456 1461 1469 1476 1482 1487 1491 1496 1500 1505 1509 1512 1515 1517 1517 1517 1518 1520 1521 1522 1523 1525 1528 1528 1527 1526 1526
1463 1466 1457 1456 1458 1453 1455 1456 1459 1458 1457 1467 1470 1458 1446 1450 1455 1455 1460 1469 1476 1481 1487 1491 1496 1499 1504 1507 1510 1512 1513 1514 1515 1517 1518 1519 1520 1522 1525 1526 1526 1526 1525 1524
1465 1463 1459 1451 1450 1452 1447 1448 1453 1463 1461 1457 1461 1454 1456 1456 1455 1456 1460 1468 1475 1481 1487 1491 1495 1498 1502 1506 1508 1509 1511 1512 1514 1515 1517 1518 1520 1522 1525 1526 1525 1524 1524 1522
1468 1469 1467 1459 1459 1455 1453 1453 1452 1454 1457 1456 1458 1452 1456 1455 1455 1457 1461 1469 1475 1481 1486 1490 1494 1497 1501 1503 1506 1507 1509 1511 1513 1514 1516 1517 1519 1522 1524 1524 1524 1523 1522 1520
1473 1466 1466 1463 1456 1453 1457 1456 1454 1454 1452 1449 1449 1446 1449 1454 1457 1460 1465 1470 1476 1481 1486 1489 1492 1496 1499 1502 1504 1507 1509 1511 1512 1513 1515 1518 1520 1521 1522 1522 1522 1521 1519 1517
1470 1464 1463 1461 1461 1461 1461 1460 1457 1456 1453 1454 1448 1448 1446 1452 1458 1463 1467 1472 1477 1481 1485 1488 1491 1494 1498 1500 1503 1506 1509 1511 1513 1515 1517 1519 1520 1521 1521 1520 1519 1518 1515 1513
1471 1468 1466 1464 1461 1462 1462 1459 1457 1457 1455 1454 1452 1450 1449 1455 1459 1463 1467 1470 1474 1478 1483 1488 1491 1494 1498 1500 1503 1506 1509 1512 1515 1517 1518 1519 1520 1520 1519 1518 1516 1514 1511 1509
1469 1471 1471 1467 1459 1465 1463 1454 1455 1455 1452 1453 1453 1451 1457 1459 1462 1465 1467 1469 1473 1477 1482 1487 1491 1495 1499 1501 1503 1506 1509 1513 1516 1518 1518 1518 1518 1518 1517 1516 1514 1511 1508 1505
1475 1473 1470 1468 1469 1477 1458 1462 1463 1462 1460 1462 1461 1461 1464 1464 1466 1468 1470 1471 1474 1478 1482 1486 1491 1496 1499 1501 1503 1506 1510 1514 1517 1518 1518 1518 1517 1516 1515 1514 1511 1508 1505 1502
1476 1475 1471 1471 1470 1464 1458 1466 1468 1467 1462 1471 1469 1470 1471 1472 1472 1472 1473 1474 1476 1479 1482 1486 1491 1495 1498 1500 1503 1508 1512 1515 1517 1518 1518 1517 1515 1514 1514 1512 1510 1506 1503 1499
1476 1475 1474 1472 1476 1473 1465 1471 1472 1471 1465 1473 1472 1472 1474 1474 1471 1474 1476 1477 1477 1480 1483 1488 1493 1496 1498 1502 1506 1510 1513 1515 1516 1517 1517 1515 1514 1513 1512 1510 1508 1505 1501 1498
1473 1473 1472 1473 1475 1465 1471 1472 1470 1471 1470 1475 1474 1473 1474 1476 1477 1478 1478 1479 1481 1484 1488 1492 1495 1498 1501 1505 1509 1512 1515 1516 1516 1516 1515 1514 1513 1512 1510 1508 1505 1503 1500 1497
1471 1471 1471 1471 1473 1471 1474 1472 1473 1473 1475 1475 1474 1474 1475 1477 1478 1479 1481 1483 1485 1489 1493 1496 1498 1501 1505 1508 1511 1514 1516 1516 1516 1515 1515 1514 1513 1511 1509 1506 1504 1502 1499 1495
1476 1474 1469 1470 1470 1472 1474 1475 1475 1475 1474 1473 1473 1474 1475 1477 1480 1482 1484 1487 1490 1494 1497 1500 1503 1506 1509 1512 1515 1516 1517 1517 1516 1515 1515 1514 1512 1510 1507 1505 1503 1501 1497 1494
1477 1480 1477 1474 1469 1470 1472 1472 1472 1472 1471 1471 1472 1473 1475 1477 1480 1484 1488 1491 1495 1498 1502 1505 1507 1510 1512 1515 1517 1518 1518 1517 1517 1516 1515 1514 1512 1510 1507 1505 1503 1500 1497 1494
1477 1477 1475 1472 1470 1470 1469 1470 1470 1469 1469 1470 1471 1474 1476 1479 1483 1487 1491 1496 1500 1503 1506 1509 1511 1513 1515 1517 1518 1518 1518 1518 1518 1517 1516 1514 1512 1510 1507 1505 1502 1500 1497 1494
1476 1475 1473 1469 1469 1471 1469 1469 1468 1468 1469 1471 1473 1476 1480 1483 1488 1492 1496 1500 1504 1507 1509 1511 1513 1515 1517 1518 1519 1519 1519 1520 1520 1518 1516 1515 1513 1510 1508 1506 1503 1500 1498 1495